Tracking 28888 objects as of 23-May-2024
HD Live streaming from Space Station
objects crossing your sky now

STARLINK-30129

Track STARLINK-30129 now!
10-day predictions
STARLINK-30129 is classified as:


NORAD ID: 56689
Int'l Code: 2023-067B
Perigee: 565.3 km
Apogee: 567.1 km
Inclination: 43.0 °
Period: 95.8 minutes
Semi major axis: 6937 km
RCS: Unknown
Launch date: May 19, 2023
Source: United States (US)
Launch site: AIR FORCE EASTERN TEST RANGE (AFETR)
Your satellite tracking list
Your tracking list is empty




NASA's NSSDC Master Catalog

Two Line Element Set (TLE):
1 56689U 23067B   24143.34408885  .00007624  00000-0  57889-3 0  9995
2 56689  43.0025 241.2649 0001328 273.3627  86.7063 15.02532737 56929
Source of the keplerian elements: AFSPC